DB0NH-2 Weather Reports


Display with metric or nautical units.
time (UTC)temp
F
wind
direction
speed
MPH
gust
MPH
rain 1hr
in
rain 24hr
in
rain mn
in
humidity
%
barometer
mb
20260506090607 58 244 5.0 10.0 0.00 0.32 0.04 80 1006.6
20260506085607 57 249 5.0 10.0 0.00 0.32 0.04 82 1006.7
20260506084607 58 256 4.0 8.0 0.00 0.32 0.04 84 1006.6
20260506083607 57 255 2.0 6.0 0.00 0.32 0.04 84 1006.4
20260506082607 56 267 2.0 4.0 0.00 0.32 0.04 84 1006.2
20260506081607 56 260 1.0 7.0 0.00 0.32 0.04 87 1006.3
20260506080607 55 255 1.0 6.0 0.00 0.32 0.04 88 1006.2
20260506072607 55 304 1.0 4.0 0.00 0.32 0.04 91 1006.2
20260506071607 54 278 0.0 2.0 0.00 0.32 0.04 92 1006.1
20260506070607 55 290 1.0 2.0 0.00 0.32 0.04 91 1006.1
20260506061607 53 259 2.0 7.0 0.00 0.32 0.04 98 1006.1
20260506060607 53 251 1.0 4.0 0.00 0.32 0.04 99 1006.2
20260506050607 52 268 1.0 2.0 0.00 0.32 0.04 99 1006.3
20260506044607 51 280 1.0 2.0 0.00 0.32 0.04 99 1006.2
20260506043607 51 284 1.0 2.0 0.00 0.32 0.04 99 1006.3
20260506042607 51 280 1.0 2.0 0.00 0.32 0.04 99 1006.1
20260506041607 51 269 1.0 4.0 0.00 0.32 0.04 99 1006.1
20260506040607 51 271 1.0 2.0 0.00 0.32 0.04 99 1006.0
20260506035607 52 264 1.0 2.0 0.00 0.32 0.04 99 1005.8
20260506034607 52 253 2.0 6.0 0.00 0.32 0.04 99 1006.1
20260506033607 52 274 2.0 4.0 0.00 0.32 0.04 99 1005.9
20260506032607 52 277 1.0 3.0 0.00 0.32 0.04 99 1005.9
20260506031607 52 297 1.0 3.0 0.00 0.32 0.04 99 1006.0
20260506030607 52 273 1.0 3.0 0.00 0.32 0.04 99 1006.0
20260506025607 52 292 2.0 6.0 0.00 0.32 0.04 99 1006.0
20260506024607 52 301 1.0 3.0 0.00 0.32 0.04 99 1006.0
20260506023607 52 288 2.0 3.0 0.00 0.32 0.04 99 1006.1
20260506022607 52 273 2.0 6.0 0.00 0.32 0.04 99 1006.1
20260506021607 52 293 2.0 4.0 0.04 0.32 0.04 99 1006.2
20260506020607 52 278 2.0 8.0 0.04 0.32 0.04 99 1006.1
20260506015607 52 268 1.0 3.0 0.04 0.32 0.04 99 1006.2
20260506014607 52 266 1.0 3.0 0.04 0.32 0.04 99 1006.3
20260506013607 52 267 1.0 3.0 0.04 0.33 0.04 99 1006.4
20260506012607 52 285 1.0 7.0 0.04 0.37 0.04 99 1006.4
20260506011607 52 252 1.0 3.0 0.00 0.33 0.00 99 1006.4
20260506010607 52 253 1.0 3.0 0.00 0.33 0.00 99 1006.4
20260506005607 52 269 1.0 3.0 0.00 0.33 0.00 99 1006.4
20260506004607 52 250 1.0 4.0 0.00 0.34 0.00 99 1006.5
20260506003607 52 246 4.0 8.0 0.00 0.34 0.00 98 1006.5
20260506002607 52 234 5.0 8.0 0.00 0.34 0.00 98 1006.8
20260506001607 52 240 4.0 7.0 0.00 0.34 0.00 98 1006.9
20260506000607 52 228 3.0 6.0 0.00 0.34 0.00 98 1006.9
20260505235607 52 234 4.0 7.0 0.00 0.34 0.00 98 1007.0
20260505234607 53 239 3.0 6.0 0.00 0.34 0.00 98 1007.0
20260505233607 53 235 2.0 6.0 0.00 0.34 0.00 98 1007.1
20260505232607 53 247 1.0 2.0 0.00 0.34 0.00 98 1007.2
20260505231607 53 241 2.0 7.0 0.00 0.34 0.00 98 1007.0
20260505230607 53 240 2.0 6.0 0.00 0.34 0.00 98 1007.1
20260505225607 53 237 0.0 3.0 0.00 0.34 0.00 98 1007.1
20260505224607 53 274 0.0 1.0 0.00 0.34 0.00 98 1007.0
20260505223607 53 247 1.0 2.0 0.00 0.34 0.00 98 1007.0
20260505222607 53 245 1.0 3.0 0.00 0.34 0.00 98 1007.0
20260505221607 53 235 2.0 3.0 0.00 0.34 0.00 98 1007.1
20260505220607 53 0.0 0.0 0.00 0.34 0.00 98 1006.9
20260505215607 53 0.0 0.0 0.00 0.34 0.34 98 1007.0
20260505214607 53 0.0 0.0 0.00 0.34 0.34 98 1007.2
20260505213607 53 0.0 0.0 0.00 0.34 0.34 98 1007.1
20260505212607 53 0.0 0.0 0.00 0.34 0.34 98 1007.3
20260505211607 53 0.0 1.0 0.00 0.34 0.34 98 1007.4
20260505210607 53 288 0.0 1.0 0.00 0.34 0.34 98 1007.4
20260505205607 53 284 0.0 1.0 0.00 0.34 0.34 98 1007.3
20260505204607 53 341 0.0 3.0 0.00 0.34 0.34 98 1007.1
20260505203607 53 328 0.0 3.0 0.01 0.34 0.34 98 1006.9
20260505202607 53 349 1.0 2.0 0.02 0.34 0.34 97 1006.9
20260505201607 54 315 1.0 2.0 0.02 0.34 0.34 97 1007.0
20260505200607 54 308 0.0 2.0 0.02 0.34 0.34 97 1007.0
20260505195608 54 294 1.0 4.0 0.03 0.34 0.34 97 1007.0
20260505194608 53 291 0.0 4.0 0.03 0.34 0.34 97 1007.1
20260505193608 53 270 0.0 1.0 0.02 0.33 0.33 97 1007.1
20260505192608 53 275 0.0 1.0 0.01 0.32 0.32 97 1007.2
20260505191608 53 277 1.0 1.0 0.01 0.32 0.32 97 1007.0
20260505190608 53 0.0 2.0 0.02 0.32 0.32 97 1006.8
20260505185608 53 313 0.0 2.0 0.01 0.31 0.31 97 1006.8
20260505184608 53 287 0.0 3.0 0.01 0.31 0.31 97 1006.8
20260505183608 53 301 0.0 3.0 0.01 0.31 0.31 96 1006.9
20260505182608 53 250 0.0 3.0 0.01 0.31 0.31 96 1006.8
20260505181608 53 278 1.0 4.0 0.02 0.31 0.31 96 1006.7
20260505180608 53 285 1.0 3.0 0.03 0.30 0.30 96 1006.5
20260505175608 54 277 0.0 2.0 0.06 0.30 0.30 96 1006.6
20260505174608 54 271 0.0 1.0 0.10 0.30 0.30 96 1006.4
20260505173608 54 250 0.0 2.0 0.16 0.30 0.30 96 1006.3
20260505172608 54 309 0.0 1.0 0.20 0.30 0.30 96 1006.4
20260505171608 54 322 1.0 3.0 0.21 0.29 0.29 95 1006.6
20260505170608 54 301 1.0 4.0 0.20 0.27 0.27 95 1006.9
20260505165608 55 271 3.0 13.0 0.18 0.24 0.24 95 1007.2
20260505164608 55 280 3.0 14.0 0.14 0.20 0.20 94 1007.2
20260505163608 55 254 2.0 10.0 0.08 0.14 0.14 93 1007.2
20260505162608 56 288 2.0 6.0 0.04 0.10 0.10 91 1007.3
20260505161608 57 285 2.0 6.0 0.02 0.08 0.08 86 1006.8
20260505160608 58 36 0.0 4.0 0.01 0.07 0.07 80 1006.3
20260505152608 64 59 4.0 10.0 0.00 0.06 0.06 64 1005.8
20260505151608 66 51 3.0 4.0 0.00 0.06 0.06 60 1006.0
20260505150608 66 31 1.0 4.0 0.00 0.06 0.06 57 1006.0
20260505140608 68 44 5.0 11.0 0.00 0.06 0.06 54 1006.6
20260505124607 68 32 1.0 4.0 0.00 0.06 0.06 55 1007.5
20260505123608 68 39 2.0 4.0 0.00 0.06 0.06 54 1007.5
20260505122608 69 65 1.0 3.0 0.00 0.06 0.06 52 1007.6
20260505121607 68 34 1.0 3.0 0.00 0.06 0.06 51 1007.8
20260505120608 68 61 2.0 6.0 0.00 0.06 0.06 52 1007.8
20260505115608 69 107 2.0 8.0 0.00 0.06 0.06 52 1007.9
20260505114608 68 35 1.0 6.0 0.00 0.06 0.06 53 1008.0
20260505113608 68 49 3.0 7.0 0.00 0.06 0.06 55 1008.1
20260505112608 68 137 2.0 7.0 0.00 0.06 0.06 55 1008.1
20260505111608 68 45 1.0 7.0 0.00 0.06 0.06 54 1008.2
20260505110609 68 51 4.0 8.0 0.00 0.06 0.06 56 1008.3
20260505101609 67 70 4.0 9.0 0.00 0.06 0.06 64 1008.7
20260505100607 66 57 2.0 6.0 0.00 0.06 0.06 70 1008.8
20260505095607 65 60 3.0 7.0 0.00 0.06 0.06 71 1009.0
20260505094608 65 69 2.0 6.0 0.00 0.06 0.06 72 1008.9
20260505093607 64 64 4.0 8.0 0.00 0.06 0.06 72 1009.0
20260505092607 64 61 3.0 7.0 0.00 0.06 0.06 74 1009.0
20260505091608 63 55 2.0 4.0 0.00 0.06 0.06 77 1009.1